Change the Weather History Date:

Saturday, February 23, 2013

  Actual Average Record
Temperature  
Mean Temperature 24 °F -  
Max Temperature 27 °F 47 °F 57 °F (2007)
Min Temperature 22 °F 36 °F 22 °F (2013)
Degree Days  
Heating Degree Days 40    
Moisture  
Dew Point 21 °F    
Average Humidity 83    
Maximum Humidity 93    
Minimum Humidity 65    
Precipitation  
Precipitation 0.00 in - - ()
Sea Level Pressure  
Sea Level Pressure 29.96 in    
Wind  
Wind Speed 11 mph ()    
Max Wind Speed 17 mph    
Max Gust Speed -    
Visibility 2.8 miles    
Events Snow    
Averages and records for this station are not official NWS values.
T = Trace of Precipitation, MM = Missing Value Source: Averaged Metar Reports

Daily Weather History Graph

Daily Weather History Graph

Search for Another Location

Airport or City:

Trip Planner

Search our weather history database for the weather conditions in past years. The results will help you decide how hot, cold, wet, or windy it might be!

Date:

Astronomy

Feb. 23, 2013 Rise Set
Actual Time 7:34 AM CET 6:09 PM CET
Civil Twilight 7:01 AM CET 6:42 PM CET
Nautical Twilight 6:23 AM CET 7:20 PM CET
Astronomical Twilight 5:45 AM CET 7:58 PM CET
Moon 3:55 PM CET (2/23) 5:57 AM CET (2/23)
Length of Visible Light 11h 41m
Length of Day
10h 34m
Waxing Gibbous, 94% of the Moon is Illuminated
Feb 23
Waxing Gibbous
Feb 25
Full
Mar 4
Last Quarter
Mar 11
New
Mar 19
First Quarter

Hourly Weather History & Observations

Time (CET) Temp. Windchill Dew Point Humidity Pressure Visibility Wind Dir Wind Speed Gust Speed Precip Events Conditions
12:20 AM 23.0 °F 12.4 °F 17.6 °F 80% 29.98 in 4.3 mi NE 10.4 mph - N/A   Mostly Cloudy
12:50 AM 23.0 °F 11.1 °F 17.6 °F 80% 29.98 in 3.7 mi NE 12.7 mph - N/A Snow Light Snow
1:00 AM 23 °F - 18 °F 73% 30.02 in 4 mi NE 11.2 mph - - Snow Light Snow
1:20 AM 23.0 °F 12.4 °F 17.6 °F 80% 29.95 in 4.3 mi NE 10.4 mph - N/A   Mostly Cloudy
1:50 AM 23.0 °F 12.4 °F 17.6 °F 80% 29.95 in 4.3 mi NE 10.4 mph - N/A Snow Light Snow
2:20 AM 24.8 °F 14.6 °F 17.6 °F 74% 29.95 in 3.7 mi NE 10.4 mph - N/A Snow Light Snow
2:50 AM 24.8 °F 14.0 °F 17.6 °F 74% 29.95 in 3.7 mi NE 11.5 mph - N/A Snow Light Snow
3:20 AM 24.8 °F 14.0 °F 19.4 °F 80% 29.95 in 3.1 mi NE 11.5 mph - N/A Snow Light Snow
3:50 AM 24.8 °F 13.4 °F 19.4 °F 80% 29.95 in 3.1 mi NNE 12.7 mph - N/A Snow Light Snow
4:00 AM 24 °F - 19 °F 74% 29.99 in 3 mi NNE 13.4 mph - - Snow Light Snow
4:20 AM 24.8 °F 14.6 °F 19.4 °F 80% 29.95 in 3.1 mi NNE 10.4 mph - N/A Snow Light Snow
4:50 AM 24.8 °F 14.0 °F 19.4 °F 80% 29.92 in 3.1 mi NNE 11.5 mph - N/A Snow Light Snow
5:20 AM 24.8 °F 12.9 °F 17.6 °F 74% 29.95 in 3.7 mi NE 13.8 mph - N/A   Mostly Cloudy
5:50 AM 23.0 °F 11.1 °F 17.6 °F 80% 29.95 in 3.1 mi NE 12.7 mph - N/A Snow Light Snow
6:20 AM 23.0 °F 11.7 °F 19.4 °F 86% 29.95 in - NNE 11.5 mph - N/A Snow Light Snow
6:50 AM 23.0 °F 13.1 °F 19.4 °F 86% 29.92 in 2.2 mi NNE 9.2 mph - N/A Snow Light Snow
7:00 AM 22 °F - 19 °F 83% 29.99 in 2 mi NNE 8.9 mph - - Snow Light Snow
7:20 AM 23.0 °F 12.4 °F 19.4 °F 86% 29.95 in 2.2 mi North 10.4 mph - N/A Snow Light Snow
7:50 AM 23.0 °F 13.9 °F 19.4 °F 86% 29.95 in 2.2 mi North 8.1 mph - N/A Snow Light Snow
8:20 AM 23.0 °F 13.1 °F 19.4 °F 86% 29.95 in 1.7 mi NNE 9.2 mph - N/A Snow Light Snow
8:50 AM 23.0 °F 12.4 °F 19.4 °F 86% 29.95 in 1.7 mi NNE 10.4 mph - N/A Snow Light Snow
9:20 AM 23.0 °F 11.1 °F 19.4 °F 86% 29.95 in 2.2 mi NNE 12.7 mph - N/A Snow Light Snow
9:50 AM 23.0 °F 10.6 °F 19.4 °F 86% 29.95 in 2.2 mi NE 13.8 mph - N/A Snow Light Snow
10:00 AM 24 °F - 19 °F 75% 30.01 in 2 mi NE 13.4 mph - - Snow Light Snow
10:20 AM 24.8 °F 13.4 °F 19.4 °F 80% 29.95 in - NE 12.7 mph - N/A Snow Light Snow
10:50 AM 24.8 °F 11.5 °F 19.4 °F 80% 29.95 in - NE 17.3 mph - N/A Snow Light Snow
11:20 AM 24.8 °F 12.4 °F 19.4 °F 80% 29.95 in - NE 15.0 mph - N/A Snow Light Snow
11:50 AM 24.8 °F 11.9 °F 19.4 °F 80% 29.95 in - NE 16.1 mph - N/A Snow Light Snow
12:20 PM 24.8 °F 11.9 °F 19.4 °F 80% 29.95 in - NNE 16.1 mph - N/A Snow Light Snow
12:50 PM 26.6 °F 13.8 °F 19.4 °F 74% 29.95 in 3.7 mi NE 17.3 mph - N/A   Mostly Cloudy
1:00 PM 26 °F - 19 °F 65% 30.01 in 4 mi NE 15.7 mph - - Snow Light Snow
1:20 PM 26.6 °F 14.7 °F 19.4 °F 74% 29.95 in 3.7 mi NNE 15.0 mph - N/A   Mostly Cloudy
1:50 PM 26.6 °F 15.2 °F 19.4 °F 74% 29.95 in 4.3 mi NNE 13.8 mph - N/A   Mostly Cloudy
2:20 PM 26.6 °F 14.7 °F 21.2 °F 80% 29.95 in 4.3 mi NNE 15.0 mph - N/A   Mostly Cloudy
2:50 PM 26.6 °F 15.7 °F 21.2 °F 80% 29.95 in 4.3 mi NNE 12.7 mph - N/A   Mostly Cloudy
3:20 PM 26.6 °F 14.7 °F 21.2 °F 80% 29.95 in 4.3 mi NE 15.0 mph - N/A   Mostly Cloudy
3:50 PM 28.4 °F 16.6 °F 21.2 °F 74% 29.95 in 3.7 mi NE 16.1 mph - N/A Snow Light Snow
4:00 PM 28 °F - 22 °F 70% 30.01 in 4 mi NE 15.7 mph - - Snow Light Snow
4:20 PM 26.6 °F 16.8 °F 23.0 °F 86% 29.95 in 2.8 mi NNE 10.4 mph - N/A Snow Light Snow
4:50 PM 26.6 °F 16.2 °F 23.0 °F 86% 29.95 in 2.8 mi NNE 11.5 mph - N/A Snow Light Snow
5:20 PM 26.6 °F 16.8 °F 24.8 °F 93% 29.95 in 2.8 mi North 10.4 mph - N/A Snow Light Snow
5:50 PM 26.6 °F 18.2 °F 24.8 °F 93% 29.95 in 2.2 mi North 8.1 mph - N/A Snow Light Snow
6:20 PM 26.6 °F 17.5 °F 23.0 °F 86% 29.95 in 2.2 mi North 9.2 mph - N/A Snow Light Snow
6:50 PM 26.6 °F 17.5 °F 24.8 °F 93% 29.95 in 2.2 mi North 9.2 mph - N/A Snow Light Snow
7:00 PM 27 °F - 24 °F 85% 30.01 in 2 mi North 8.9 mph - - Snow Light Snow
7:20 PM 26.6 °F 18.2 °F 24.8 °F 93% 29.98 in 2.2 mi North 8.1 mph - N/A Snow Light Snow
7:50 PM 26.6 °F 18.2 °F 24.8 °F 93% 29.98 in 1.8 mi North 8.1 mph - N/A Snow Light Snow
8:20 PM 26.6 °F 17.5 °F 24.8 °F 93% 29.95 in 1.8 mi North 9.2 mph - N/A Snow Light Snow
8:50 PM 26.6 °F 18.2 °F 24.8 °F 93% 29.95 in 1.2 mi North 8.1 mph - N/A Snow Light Snow
9:20 PM 26.6 °F 17.5 °F 24.8 °F 93% 29.98 in 1.4 mi North 9.2 mph - N/A Snow Light Snow
9:50 PM 26.6 °F 18.2 °F 24.8 °F 93% 29.98 in 1.3 mi North 8.1 mph - N/A Snow Light Snow
10:00 PM 26 °F - 24 °F 91% 30.02 in 1 mi North 8.9 mph - - Snow Light Snow
10:20 PM 26.6 °F 18.2 °F 24.8 °F 93% 29.98 in 1.5 mi North 8.1 mph - N/A Snow Light Snow
10:50 PM 26.6 °F 18.2 °F 24.8 °F 93% 29.98 in 1.2 mi North 8.1 mph - N/A Snow Light Snow
11:20 PM 26.6 °F 17.5 °F 24.8 °F 93% 29.98 in - North 9.2 mph - N/A Snow Light Snow
11:50 PM 26.6 °F 18.2 °F 24.8 °F 93% 29.98 in 1.8 mi North 8.1 mph - N/A Snow Light Snow